User: anonymous   Login
Location: Shenandoah County Park
(38.9356°N, 78.4524°W)
Time: 19:26:44
(UTC-05:00)
Language:

N. Korean satellite - Orbit

View from above orbital plane
View from above orbital plane
View from above satellite
View from above satellite

Ground track
Ground track

The orbit data is extracted from the following two-line orbital elements,

1 39026U 12072A   22026.54612028  .00008491  00000-0  26989-3 0  9991
2 39026  97.2608  19.4573 0031979 310.4781  49.3674 15.32364286507168
Epoch (UTC): 26 January 2022 13:06:24
Eccentricity: 0.0031979
inclination: 97.2608°
perigee height: 447 km
apogee height: 490 km
right ascension of ascending node: 19.4573°
argument of perigee: 310.4781°
revolutions per day: 15.32364286
mean anomaly at epoch: 49.3674°
orbit number at epoch: 50716

The dashed part of the orbit path shows where the satellite is in the earth's shadow,  

DLR